• In India
  • List of Countries
  • For 7 days
  • Water Temperature
  • Satellite Maps
  • Weather Map
  • Weather Widgets
  • user-avatar
    Login

    Hourly Weather Konradow

    Today, 19 February, Tuesday

    Time Temperature Precipitation Wind Pressure Humidity
    00:00 +2°C° 0 mm 3 mps 745 mmHg 86%
    01:00 +2°C° 0 mm 3 mps 745 mmHg 88%
    02:00 +1°C° 0 mm 3 mps 744 mmHg 88%
    03:00 +1°C° 0 mm 3 mps 744 mmHg 89%
    04:00 +1°C° 0 mm 3 mps 744 mmHg 89%
    05:00 +1°C° 0 mm 3 mps 744 mmHg 89%
    06:00 0°C° 0 mm 3 mps 743 mmHg 89%
    07:00 0°C° 0 mm 3 mps 743 mmHg 89%
    08:00 +2°C° 0 mm 3 mps 743 mmHg 81%
    09:00 +3°C° 0 mm 4 mps 743 mmHg 74%
    10:00 +5°C° 0 mm 4 mps 743 mmHg 66%
    11:00 +6°C° 0 mm 4 mps 742 mmHg 60%
    12:00 +8°C° 0 mm 4 mps 742 mmHg 54%
    13:00 +9°C° 0 mm 5 mps 742 mmHg 48%
    14:00 +10°C° 0 mm 4 mps 741 mmHg 50%
    15:00 +10°C° 0 mm 4 mps 741 mmHg 51%
    16:00 +8°C° 0 mm 4 mps 741 mmHg 53%
    17:00 +7°C° 0 mm 4 mps 741 mmHg 59%
    18:00 +6°C° 0 mm 4 mps 741 mmHg 64%
    19:00 +5°C° 0 mm 4 mps 741 mmHg 70%
    20:00 +5°C° 0 mm 4 mps 741 mmHg 72%
    21:00 +4°C° 0 mm 4 mps 741 mmHg 75%
    22:00 +4°C° 0 mm 4 mps 741 mmHg 77%
    23:00 +4°C° 0.5 mm 4 mps 741 mmHg 81%

    Tomorrow, 20 February, Wednesday

    Time Temperature Precipitation Wind Pressure Humidity
    00:00 +4°C° 0.5 mm 4 mps 741 mmHg 85%
    01:00 +3°C° 0.5 mm 5 mps 741 mmHg 88%
    02:00 +4°C° 0.3 mm 4 mps 741 mmHg 89%
    03:00 +3°C° 0.3 mm 4 mps 741 mmHg 89%
    04:00 +3°C° 0.3 mm 4 mps 741 mmHg 89%
    05:00 +3°C° 0 mm 4 mps 741 mmHg 89%
    06:00 +2°C° 0 mm 5 mps 741 mmHg 88%
    07:00 +2°C° 0 mm 6 mps 742 mmHg 88%
    08:00 +2°C° 0.1 mm 6 mps 742 mmHg 83%
    09:00 +3°C° 0.1 mm 6 mps 742 mmHg 77%
    10:00 +4°C° 0.1 mm 7 mps 743 mmHg 72%
    11:00 +4°C° 0.1 mm 7 mps 743 mmHg 69%
    12:00 +4°C° 0.1 mm 7 mps 743 mmHg 66%
    13:00 +4°C° 0.1 mm 7 mps 743 mmHg 63%
    14:00 +4°C° 0.1 mm 7 mps 743 mmHg 65%
    15:00 +4°C° 0.1 mm 7 mps 743 mmHg 66%
    16:00 +3°C° 0.1 mm 7 mps 744 mmHg 67%
    17:00 +3°C° 0 mm 6 mps 744 mmHg 70%
    18:00 +2°C° 0 mm 6 mps 744 mmHg 73%
    19:00 +2°C° 0 mm 5 mps 745 mmHg 76%
    20:00 +2°C° 0 mm 5 mps 745 mmHg 77%
    21:00 +2°C° 0 mm 5 mps 745 mmHg 78%
    22:00 +2°C° 0 mm 5 mps 745 mmHg 79%
    23:00 +3°C° 0 mm 4 mps 745 mmHg 80%

    Day after tomorrow, 21 February, Thursday

    Time Temperature Precipitation Wind Pressure Humidity
    00:00 +1°C° 0 mm 4 mps 746 mmHg 81%
    01:00 +1°C° 0 mm 4 mps 746 mmHg 82%
    02:00 +1°C° 0 mm 4 mps 746 mmHg 82%
    03:00 +2°C° 0 mm 3 mps 746 mmHg 83%
    04:00 +2°C° 0 mm 3 mps 745 mmHg 83%
    05:00 +1°C° 0.1 mm 4 mps 745 mmHg 85%
    06:00 +3°C° 0.1 mm 4 mps 746 mmHg 87%
    07:00 +3°C° 0.1 mm 4 mps 746 mmHg 90%
    08:00 +2°C° 0.2 mm 5 mps 746 mmHg 87%
    09:00 +3°C° 0.2 mm 5 mps 746 mmHg 84%
    10:00 +3°C° 0.2 mm 5 mps 746 mmHg 81%
    11:00 +5°C° 0.2 mm 5 mps 745 mmHg 81%
    12:00 +5°C° 0.2 mm 5 mps 745 mmHg 80%
    13:00 +5°C° 0.2 mm 5 mps 745 mmHg 80%
    14:00 +5°C° 0.3 mm 5 mps 744 mmHg 82%
    15:00 +3°C° 0.3 mm 5 mps 744 mmHg 84%
    16:00 +3°C° 0.3 mm 5 mps 744 mmHg 86%
    17:00 +4°C° 0.7 mm 4 mps 744 mmHg 87%
    18:00 +4°C° 0.7 mm 4 mps 744 mmHg 89%
    19:00 +4°C° 0.7 mm 4 mps 744 mmHg 91%
    20:00 +4°C° 0.9 mm 4 mps 744 mmHg 92%
    21:00 +4°C° 0.9 mm 4 mps 744 mmHg 93%
    22:00 +4°C° 0.9 mm 4 mps 744 mmHg 94%
    23:00 +4°C° 0.2 mm 4 mps 744 mmHg 94%

    22 February, Friday

    Time Temperature Precipitation Wind Pressure Humidity
    00:00 +4°C° 0.2 mm 4 mps 744 mmHg 94%
    01:00 +4°C° 0.2 mm 4 mps 745 mmHg 95%
    02:00 +2°C° 0.3 mm 5 mps 745 mmHg 92%
    03:00 +1°C° 0.3 mm 5 mps 745 mmHg 90%
    04:00 -1°C° 0.3 mm 6 mps 745 mmHg 88%
    05:00 -2°C° 0.2 mm 6 mps 746 mmHg 85%
    06:00 -3°C° 0.2 mm 6 mps 747 mmHg 83%
    07:00 -4°C° 0.2 mm 7 mps 748 mmHg 80%
    08:00 -4°C° 0 mm 7 mps 749 mmHg 74%
    09:00 -4°C° 0 mm 7 mps 751 mmHg 67%
    10:00 -4°C° 0 mm 6 mps 752 mmHg 61%
    11:00 -4°C° 0 mm 6 mps 753 mmHg 59%
    12:00 -3°C° 0 mm 6 mps 753 mmHg 57%
    13:00 -3°C° 0 mm 6 mps 754 mmHg 56%
    14:00 -4°C° 0 mm 6 mps 755 mmHg 54%
    15:00 -4°C° 0 mm 6 mps 755 mmHg 53%
    16:00 -5°C° 0 mm 6 mps 756 mmHg 51%
    17:00 -5°C° 0 mm 6 mps 757 mmHg 51%
    18:00 -6°C° 0 mm 5 mps 757 mmHg 51%
    19:00 -6°C° 0 mm 5 mps 758 mmHg 51%
    20:00 -6°C° 0 mm 5 mps 758 mmHg 50%
    21:00 -5°C° 0 mm 4 mps 759 mmHg 49%
    22:00 -5°C° 0 mm 4 mps 759 mmHg 48%
    23:00 -5°C° 0 mm 4 mps 759 mmHg 47%

    23 February, Saturday

    Time Temperature Precipitation Wind Pressure Humidity
    00:00 -5°C° 0 mm 3 mps 759 mmHg 46%
    01:00 -5°C° 0 mm 3 mps 759 mmHg 45%
    02:00 -5°C° 0 mm 3 mps 759 mmHg 45%
    03:00 -6°C° 0 mm 3 mps 759 mmHg 45%
    04:00 -7°C° 0 mm 4 mps 759 mmHg 45%
    05:00 -6°C° 0 mm 3 mps 759 mmHg 45%
    06:00 -6°C° 0 mm 3 mps 760 mmHg 46%
    07:00 -6°C° 0 mm 3 mps 760 mmHg 47%
    08:00 -5°C° 0 mm 3 mps 760 mmHg 43%
    09:00 -4°C° 0 mm 3 mps 760 mmHg 39%
    10:00 -2°C° 0 mm 3 mps 760 mmHg 35%
    11:00 -1°C° 0 mm 3 mps 759 mmHg 34%
    12:00 -2°C° 0 mm 4 mps 759 mmHg 33%
    13:00 -2°C° 0 mm 4 mps 759 mmHg 32%
    14:00 -2°C° 0 mm 4 mps 758 mmHg 33%
    15:00 -2°C° 0 mm 4 mps 758 mmHg 34%
    16:00 -2°C° 0 mm 4 mps 757 mmHg 36%
    17:00 -1°C° 0 mm 3 mps 757 mmHg 43%
    18:00 -2°C° 0 mm 3 mps 757 mmHg 49%
    19:00 -2°C° 0 mm 2 mps 757 mmHg 56%
    20:00 -2°C° 0 mm 2 mps 757 mmHg 56%
    21:00 -3°C° 0 mm 2 mps 757 mmHg 56%
    22:00 -3°C° 0 mm 2 mps 756 mmHg 56%
    23:00 -3°C° 0 mm 2 mps 756 mmHg 58%

    24 February, Sunday

    Time Temperature Precipitation Wind Pressure Humidity
    00:00 -3°C° 0 mm 2 mps 756 mmHg 59%
    01:00 -3°C° 0 mm 2 mps 756 mmHg 61%
    02:00 -3°C° 0 mm 2 mps 756 mmHg 64%
    03:00 -2°C° 0 mm 2 mps 756 mmHg 67%
    04:00 -2°C° 0 mm 2 mps 756 mmHg 70%
    05:00 -2°C° 0 mm 2 mps 756 mmHg 71%
    06:00 0°C° 0 mm 1 mps 756 mmHg 73%
    07:00 0°C° 0 mm 1 mps 756 mmHg 74%
    08:00 0°C° 0 mm 1 mps 756 mmHg 75%
    09:00 -1°C° 0 mm 2 mps 757 mmHg 76%
    10:00 +1°C° 0 mm 2 mps 757 mmHg 76%
    11:00 +1°C° 0 mm 2 mps 757 mmHg 76%
    12:00 +2°C° 0 mm 2 mps 757 mmHg 76%
    13:00 +3°C° 0 mm 2 mps 757 mmHg 76%
    14:00 +2°C° 0 mm 2 mps 756 mmHg 79%
    15:00 +3°C° 0 mm 1 mps 756 mmHg 82%
    16:00 +3°C° 0 mm 1 mps 756 mmHg 86%
    17:00 +3°C° 0 mm 1 mps 756 mmHg 89%
    18:00 +2°C° 0 mm 1 mps 756 mmHg 91%
    19:00 +2°C° 0 mm 1 mps 756 mmHg 94%
    20:00 +2°C° 0 mm 1 mps 755 mmHg 95%
    21:00 +2°C° 0 mm 1 mps 755 mmHg 96%
    22:00 +1°C° 0 mm 1 mps 755 mmHg 96%
    23:00 +1°C° 0 mm 2 mps 754 mmHg 96%
    Show more